Clemson, SC

1:02 PM EDT on March 27, 2017 (GMT -0400)
Oconee County Regional

Weather History for KCEU - December, 2012

Change the Weather History Date:

Tuesday, December 18, 2012

  Actual Average Record
Temperature  
Mean Temperature 54 °F -  
Max Temperature 63 °F 53 °F 75 °F (2006)
Min Temperature 46 °F 29 °F 7 °F (1953)
Degree Days  
Heating Degree Days 10    
Growing Degree Days 4 (Base 50)    
Moisture  
Dew Point 36 °F    
Average Humidity 55    
Maximum Humidity 86    
Minimum Humidity 22    
Precipitation  
Precipitation 0.01 in - - ()
Sea Level Pressure  
Sea Level Pressure 29.84 in    
Wind  
Wind Speed 8 mph (WSW)    
Max Wind Speed 14 mph    
Max Gust Speed 22 mph    
Visibility 9 miles    
Events      
Averages and records for this station are not official NWS values.
T = Trace of Precipitation, MM = Missing Value Source: NWS Daily Summary

Daily Weather History Graph

Daily Weather History Graph

Search for Another Location

Airport or City:

Trip Planner

Search our weather history database for the weather conditions in past years. The results will help you decide how hot, cold, wet, or windy it might be!

Date:

Astronomy

Dec. 18, 2012 Rise Set
Actual Time 7:33 AM EST 5:23 PM EST
Civil Twilight 7:05 AM EST 5:51 PM EST
Nautical Twilight 6:33 AM EST 6:23 PM EST
Astronomical Twilight 6:03 AM EST 6:53 PM EST
Moon 11:25 AM EST (12/18) 11:33 PM EST (12/18)
Length of Visible Light 10h 46m
Length of Day
9h 50m
Waxing Crescent, 34% of the Moon is Illuminated
Dec 18
Waxing Crescent
Dec 20
First Quarter
Dec 28
Full
Jan 4
Last Quarter
Jan 11
New

Hourly Weather History & Observations

Time (EST) Temp. Windchill Dew Point Humidity Pressure Visibility Wind Dir Wind Speed Gust Speed Precip Events Conditions
12:54 AM 55.0 °F - 51.1 °F 86% 29.71 in 6.0 mi SW 3.5 mph - N/A   Clear
1:54 AM 55.0 °F - 51.1 °F 86% 29.72 in 8.0 mi SW 6.9 mph - N/A   Partly Cloudy
2:54 AM 54.0 °F - 50.0 °F 86% 29.71 in 8.0 mi SSW 4.6 mph - N/A   Clear
3:54 AM 54.0 °F - 50.0 °F 86% 29.71 in 7.0 mi Variable 4.6 mph - N/A   Clear
4:54 AM 54.0 °F - 50.0 °F 86% 29.71 in 7.0 mi SW 4.6 mph - N/A   Partly Cloudy
5:54 AM 52.0 °F - 48.0 °F 86% 29.73 in 7.0 mi West 9.2 mph - 0.01 in   Clear
6:54 AM 53.1 °F - 46.0 °F 77% 29.75 in 10.0 mi WSW 10.4 mph 17.3 mph N/A   Clear
7:54 AM 50.0 °F - 39.9 °F 68% 29.78 in 10.0 mi West 13.8 mph - N/A   Clear
8:54 AM 51.1 °F - 37.9 °F 61% 29.80 in 10.0 mi West 12.7 mph - N/A   Clear
9:54 AM 53.1 °F - 39.0 °F 59% 29.83 in 10.0 mi West 12.7 mph - N/A   Clear
10:54 AM 55.0 °F - 37.0 °F 51% 29.86 in 10.0 mi WSW 12.7 mph - N/A   Clear
11:54 AM 57.0 °F - 36.0 °F 45% 29.86 in 10.0 mi West 10.4 mph 21.9 mph N/A   Clear
12:54 PM 59.0 °F - 33.1 °F 38% 29.86 in 10.0 mi West 10.4 mph 19.6 mph N/A   Clear
1:54 PM 61.0 °F - 32.0 °F 34% 29.86 in 10.0 mi West 10.4 mph - N/A   Clear
2:54 PM 63.0 °F - 23.0 °F 22% 29.87 in 10.0 mi NW 13.8 mph 18.4 mph N/A   Clear
3:54 PM 61.0 °F - 28.0 °F 29% 29.89 in 10.0 mi WSW 9.2 mph - N/A   Clear
4:54 PM 59.0 °F - 27.0 °F 29% 29.91 in 10.0 mi WSW 6.9 mph - N/A   Clear
5:54 PM 54.0 °F - 28.9 °F 38% 29.92 in 10.0 mi West 8.1 mph - N/A   Clear
6:54 PM 51.1 °F - 27.0 °F 39% 29.94 in 10.0 mi West 6.9 mph - N/A   Clear
7:54 PM 51.1 °F - 26.1 °F 38% 29.96 in 10.0 mi WSW 6.9 mph - N/A   Clear
8:54 PM 48.9 °F - 26.1 °F 41% 29.96 in 10.0 mi West 8.1 mph - N/A   Clear
9:54 PM 48.0 °F - 26.1 °F 42% 29.97 in 10.0 mi WSW 8.1 mph - N/A   Clear
10:54 PM 46.9 °F - 27.0 °F 46% 29.98 in 10.0 mi WSW 9.2 mph - N/A   Clear
11:54 PM 46.0 °F 42.5 °F 28.9 °F 51% 29.99 in 10.0 mi WSW 6.9 mph - N/A   Clear